Weather History for KMGC - September, 2013

Change the Weather History Date:

Sunday, September 22, 2013

  Actual Average (KVPZ) Record (KVPZ)
Temperature  
Mean Temperature 52 °F 61 °F  
Max Temperature 60 °F 72 °F 91 °F (2005)
Min Temperature 42 °F 50 °F 38 °F (1999)
Degree Days  
Heating Degree Days 13 5  
Month to date heating degree days 58  
Since 1 July heating degree days 75  
Cooling Degree Days 0 1  
Month to date cooling degree days 57  
Year to date cooling degree days 693  
Growing Degree Days 2 (Base 50)    
Moisture  
Dew Point 44 °F    
Average Humidity 70    
Maximum Humidity 93    
Minimum Humidity 52    
Precipitation  
Precipitation 0.00 in 0.10 in 0.39 in (2009)
Month to date precipitation 2.36  
Year to date precipitation 27.90  
Sea Level Pressure  
Sea Level Pressure 30.03 in    
Wind  
Wind Speed 3 mph (NNE)    
Max Wind Speed 8 mph    
Max Gust Speed 16 mph    
Visibility 10 miles    
Events      
T = Trace of Precipitation, MM = Missing Value Source: NWS Daily Summary

Daily Weather History Graph

Daily Weather History Graph

Search for Another Location

Airport or City:

Trip Planner

Search our weather history database for the weather conditions in past years. The results will help you decide how hot, cold, wet, or windy it might be!

Date:

Astronomy

Sep. 22, 2013 Rise Set
Actual Time 6:34 AM CDT 6:44 PM CDT
Civil Twilight 6:07 AM CDT 7:11 PM CDT
Nautical Twilight 5:34 AM CDT 7:44 PM CDT
Astronomical Twilight 5:01 AM CDT 8:17 PM CDT
Moon 8:30 PM CDT (9/22) 9:58 AM CDT (9/22)
Length of Visible Light 13h 04m
Length of Day
12h 09m
Waning Gibbous, 88% of the Moon is Illuminated
Sep 22
Waning Gibbous
Sep 26
Last Quarter
Oct 4
New
Oct 11
First Quarter
Oct 18
Full

Hourly Weather History & Observations

Time (CDT) Temp. Dew Point Humidity Pressure Visibility Wind Dir Wind Speed Gust Speed Precip Events Conditions
12:15 AM 59.0 °F 46.4 °F 63% 29.94 in 10.0 mi NNW 6.9 mph - N/A   Overcast
12:35 AM 59.0 °F 46.4 °F 63% 29.94 in 10.0 mi NW 6.9 mph - N/A   Overcast
12:55 AM 59.0 °F 46.4 °F 63% 29.94 in 10.0 mi NNW 3.5 mph - N/A   Overcast
1:15 AM 59.0 °F 46.4 °F 63% 29.94 in 10.0 mi North 4.6 mph - N/A   Overcast
1:35 AM 55.4 °F 46.4 °F 72% 29.95 in 10.0 mi ENE 4.6 mph - N/A   Overcast
1:55 AM 55.4 °F 46.4 °F 72% 29.95 in 10.0 mi East 4.6 mph - N/A   Overcast
2:15 AM 55.4 °F 46.4 °F 72% 29.96 in 10.0 mi East 3.5 mph - N/A   Overcast
2:35 AM 53.6 °F 46.4 °F 77% 29.96 in 10.0 mi Calm Calm - N/A   Overcast
2:55 AM 53.6 °F 44.6 °F 72% 29.96 in 10.0 mi East 3.5 mph - N/A   Overcast
3:15 AM 53.6 °F 44.6 °F 72% 29.97 in 10.0 mi Calm Calm - N/A   Overcast
3:35 AM 53.6 °F 44.6 °F 72% 29.97 in 10.0 mi Calm Calm - N/A   Overcast
3:55 AM 51.8 °F 46.4 °F 82% 29.97 in 10.0 mi Calm Calm - N/A   Overcast
4:15 AM 51.8 °F 46.4 °F 82% 29.97 in 10.0 mi Calm Calm - N/A   Overcast
4:35 AM 53.6 °F 46.4 °F 77% 29.98 in 10.0 mi Calm Calm - N/A   Overcast
4:55 AM 51.8 °F 46.4 °F 82% 29.98 in 10.0 mi Calm Calm - N/A   Overcast
5:15 AM 51.8 °F 44.6 °F 76% 29.98 in 10.0 mi Calm Calm - N/A   Overcast
5:35 AM 51.8 °F 44.6 °F 76% 29.99 in 10.0 mi Calm Calm - N/A   Overcast
5:55 AM 51.8 °F 44.6 °F 76% 29.99 in 10.0 mi Calm Calm - N/A   Overcast
6:15 AM 51.8 °F 44.6 °F 76% 29.99 in 10.0 mi Calm Calm - N/A   Overcast
6:35 AM 51.8 °F 44.6 °F 76% 30.00 in 10.0 mi Calm Calm - N/A   Overcast
6:55 AM 50.0 °F 44.6 °F 82% 30.00 in 10.0 mi Calm Calm - N/A   Overcast
7:15 AM 50.0 °F 44.6 °F 82% 30.01 in 10.0 mi Calm Calm - N/A   Mostly Cloudy
7:35 AM 51.8 °F 44.6 °F 76% 30.01 in 10.0 mi Calm Calm - N/A   Mostly Cloudy
7:55 AM 53.6 °F 42.8 °F 67% 30.02 in 10.0 mi Calm Calm - N/A   Scattered Clouds
8:15 AM 55.4 °F 41.0 °F 58% 30.03 in 10.0 mi East 3.5 mph - N/A   Mostly Cloudy
8:35 AM 53.6 °F 39.2 °F 58% 30.04 in 10.0 mi East 3.5 mph - N/A   Overcast
8:55 AM 53.6 °F 41.0 °F 62% 30.05 in 10.0 mi East 3.5 mph - N/A   Overcast
9:15 AM 55.4 °F 41.0 °F 58% 30.05 in 10.0 mi ESE 4.6 mph - N/A   Overcast
9:35 AM 55.4 °F 41.0 °F 58% 30.05 in 10.0 mi ENE 4.6 mph - N/A   Mostly Cloudy
9:55 AM 57.2 °F 42.8 °F 59% 30.05 in 10.0 mi Calm Calm - N/A   Mostly Cloudy
10:15 AM 57.2 °F 42.8 °F 59% 30.06 in 10.0 mi Calm Calm - N/A   Mostly Cloudy
10:35 AM 59.0 °F 42.8 °F 55% 30.06 in 10.0 mi Calm Calm - N/A   Mostly Cloudy
10:55 AM 59.0 °F 42.8 °F 55% 30.06 in 10.0 mi NW 3.5 mph - N/A   Mostly Cloudy
11:15 AM 59.0 °F 42.8 °F 55% 30.06 in 10.0 mi ENE 3.5 mph - N/A   Mostly Cloudy
11:35 AM 59.0 °F 44.6 °F 59% 30.06 in 10.0 mi North 4.6 mph - N/A   Mostly Cloudy
11:55 AM 60.8 °F 44.6 °F 55% 30.06 in 10.0 mi NNE 8.1 mph - N/A   Mostly Cloudy
12:15 PM 60.8 °F 42.8 °F 52% 30.06 in 10.0 mi North 8.1 mph - N/A   Mostly Cloudy
12:35 PM 60.8 °F 44.6 °F 55% 30.05 in 10.0 mi NNW 4.6 mph - N/A   Scattered Clouds
12:55 PM 60.8 °F 44.6 °F 55% 30.05 in 10.0 mi North 6.9 mph - N/A   Scattered Clouds
1:15 PM 60.8 °F 44.6 °F 55% 30.04 in 10.0 mi NNE 6.9 mph - N/A   Scattered Clouds
1:35 PM 59.0 °F 42.8 °F 55% 30.04 in 10.0 mi Calm Calm - N/A   Scattered Clouds
1:55 PM 60.8 °F 42.8 °F 52% 30.04 in 10.0 mi NE 4.6 mph - N/A   Mostly Cloudy
2:15 PM 59.0 °F 44.6 °F 59% 30.04 in 10.0 mi NNW 6.9 mph - N/A   Mostly Cloudy
2:35 PM 59.0 °F 42.8 °F 55% 30.04 in 10.0 mi North 4.6 mph 16.1 mph N/A   Scattered Clouds
2:55 PM 59.0 °F 42.8 °F 55% 30.04 in 10.0 mi NNW 4.6 mph - N/A   Mostly Cloudy
3:15 PM 59.0 °F 42.8 °F 55% 30.04 in 10.0 mi North 8.1 mph - N/A   Mostly Cloudy
3:35 PM 59.0 °F 42.8 °F 55% 30.03 in 10.0 mi East 3.5 mph - N/A   Mostly Cloudy
3:55 PM 59.0 °F 42.8 °F 55% 30.03 in 10.0 mi North 8.1 mph - N/A   Mostly Cloudy
4:15 PM 59.0 °F 42.8 °F 55% 30.03 in 10.0 mi North 4.6 mph - N/A   Mostly Cloudy
4:35 PM 59.0 °F 44.6 °F 59% 30.03 in 7.0 mi NE 6.9 mph - N/A   Mostly Cloudy
4:55 PM 55.4 °F 42.8 °F 63% 30.03 in 10.0 mi NNE 5.8 mph - N/A   Mostly Cloudy
5:15 PM 57.2 °F 42.8 °F 59% 30.03 in 10.0 mi NNE 4.6 mph - N/A   Mostly Cloudy
5:35 PM 55.4 °F 42.8 °F 63% 30.03 in 10.0 mi NNE 4.6 mph - N/A   Scattered Clouds
5:55 PM 55.4 °F 42.8 °F 63% 30.04 in 10.0 mi ENE 4.6 mph - N/A   Scattered Clouds
6:15 PM 55.4 °F 44.6 °F 67% 30.04 in 10.0 mi NNE 3.5 mph - N/A   Clear
6:35 PM 53.6 °F 44.6 °F 72% 30.04 in 10.0 mi Calm Calm - N/A   Clear
6:55 PM 51.8 °F 44.6 °F 76% 30.05 in 10.0 mi Calm Calm - N/A   Clear
7:15 PM 50.0 °F 44.6 °F 82% 30.05 in 10.0 mi Calm Calm - N/A   Clear
7:35 PM 50.0 °F 44.6 °F 82% 30.05 in 10.0 mi Calm Calm - N/A   Clear
7:55 PM 48.2 °F 44.6 °F 87% 30.05 in 10.0 mi Calm Calm - N/A   Clear
8:15 PM 48.2 °F 44.6 °F 87% 30.06 in 10.0 mi Calm Calm - N/A   Clear
8:35 PM 46.4 °F 44.6 °F 93% 30.06 in 10.0 mi Calm Calm - N/A   Clear
8:55 PM 46.4 °F 44.6 °F 93% 30.06 in 10.0 mi Calm Calm - N/A   Clear
9:15 PM 46.4 °F 44.6 °F 93% 30.07 in 10.0 mi Calm Calm - N/A   Clear
9:35 PM 46.4 °F 44.6 °F 93% 30.06 in 10.0 mi Calm Calm - N/A   Clear
9:55 PM 44.6 °F 42.8 °F 93% 30.06 in 10.0 mi Calm Calm - N/A   Clear
10:15 PM 46.4 °F 42.8 °F 87% 30.07 in 10.0 mi Calm Calm - N/A   Clear
10:35 PM 44.6 °F 42.8 °F 93% 30.07 in 10.0 mi Calm Calm - N/A   Clear
10:55 PM 46.4 °F 42.8 °F 87% 30.07 in 10.0 mi Calm Calm - N/A   Clear
11:15 PM 46.4 °F 42.8 °F 87% 30.08 in 10.0 mi Calm Calm - N/A   Clear
11:35 PM 44.6 °F 42.8 °F 93% 30.08 in 10.0 mi Calm Calm - N/A   Clear
11:55 PM 42.8 °F 41.0 °F 93% 30.09 in 10.0 mi Calm Calm - N/A   Clear